EW4365 Weather Reports


Display with metric or nautical units.
time (UTC)temp
F
wind
direction
speed
MPH
gust
MPH
rain 1hr
in
rain 24hr
in
rain mn
in
humidity
%
barometer
mb
20260506234543 52 335 1.0 5.0 0.00 0.97 0.30 62 1013.4
20260506233052 52 329 2.0 5.0 0.00 0.97 0.30 57 1013.4
20260506231543 52 355 2.0 5.0 0.00 0.97 0.30 56 1013.6
20260506230045 52 360 4.0 10.0 0.00 0.97 0.30 54 1013.7
20260506224542 53 326 3.0 10.0 0.00 1.00 0.30 55 1013.9
20260506223043 53 17 4.0 8.0 0.00 1.00 0.30 57 1013.7
20260506221544 53 337 4.0 9.0 0.00 1.00 0.30 57 1013.6
20260506220046 53 334 3.0 6.0 0.00 1.00 0.30 59 1013.5
20260506214534 53 346 3.0 10.0 0.00 1.14 0.30 59 1013.2
20260506213035 53 355 4.0 10.0 0.00 1.14 0.30 57 1013.0
20260506211537 53 355 4.0 9.0 0.00 1.14 0.30 57 1013.0
20260506210031 53 334 4.0 8.0 0.00 1.14 0.30 57 1013.0
20260506204530 54 340 5.0 10.0 0.00 1.23 0.30 55 1012.8
20260506203029 54 341 5.0 9.0 0.00 1.23 0.30 56 1012.6
20260506201529 54 324 5.0 10.0 0.00 1.23 0.30 55 1012.6
20260506200027 53 311 4.0 8.0 0.00 1.23 0.30 57 1012.6
20260506194530 53 334 4.0 10.0 0.00 1.23 0.30 56 1012.9
20260506193031 54 321 2.0 9.0 0.00 1.23 0.30 58 1012.9
20260506191526 54 355 3.0 10.0 0.00 1.23 0.30 60 1012.7
20260506190025 54 321 4.0 11.0 0.00 1.23 0.30 58 1012.5
20260506184526 54 303 3.0 11.0 0.00 1.23 0.30 59 1012.4
20260506183023 54 313 5.0 13.0 0.00 1.23 0.30 59 1012.5
20260506181522 55 5 7.0 12.0 0.00 1.23 0.30 61 1012.7
20260506180021 55 350 6.0 11.0 0.00 1.23 0.30 60 1012.6
20260506174519 56 27 5.0 12.0 0.00 1.23 0.30 59 1012.5
20260506173018 55 340 8.0 13.0 0.00 1.23 0.30 61 1012.6
20260506171520 55 334 4.0 11.0 0.00 1.23 0.30 63 1012.5
20260506170015 55 10 7.0 10.0 0.00 1.23 0.30 70 1012.4
20260506164511 54 5 7.0 12.0 0.00 1.23 0.30 67 1012.5
20260506163009 54 15 6.0 12.0 0.00 1.23 0.30 66 1012.3
20260506161506 53 30 4.0 13.0 0.00 1.23 0.30 69 1012.5
20260506160003 53 348 6.0 11.0 0.00 1.23 0.30 74 1012.4
20260506154601 52 360 3.0 9.0 0.00 1.23 0.30 72 1012.3
20260506153055 51 40 7.0 12.0 0.00 1.23 0.30 74 1011.9
20260506151552 50 296 5.0 11.0 0.00 1.23 0.30 73 1011.8
20260506150058 50 13 6.0 11.0 0.00 1.23 0.30 77 1011.9
20260506144601 49 341 5.0 12.0 0.00 1.23 0.30 76 1011.7
20260506143051 49 355 5.0 10.0 0.00 1.23 0.30 78 1011.6
20260506141541 48 319 7.0 12.0 0.00 1.23 0.30 77 1011.2
20260506140054 48 9 5.0 12.0 0.00 1.23 0.30 80 1011.1
20260506134536 47 38 6.0 11.0 0.00 1.23 0.30 81 1010.9
20260506133034 46 5 6.0 11.0 0.00 1.23 0.30 83 1010.9
20260506131541 46 5 4.0 9.0 0.00 1.23 0.30 85 1010.9
20260506130031 45 19 4.0 9.0 0.00 1.23 0.30 87 1010.9
20260506124528 45 355 4.0 6.0 0.00 1.23 0.30 88 1010.7
20260506123036 44 17 4.0 6.0 0.00 1.23 0.30 88 1010.3
20260506121524 44 355 4.0 9.0 0.00 1.23 0.30 88 1010.1
20260506120029 44 355 5.0 10.0 0.00 1.23 0.30 89 1009.8
20260506114521 44 355 5.0 8.0 0.00 1.23 0.30 89 1009.7
20260506113017 44 13 6.0 10.0 0.00 1.23 0.30 90 1009.1
20260506111516 44 17 6.0 12.0 0.00 1.23 0.30 91 1008.6
20260506110014 44 36 5.0 11.0 0.00 1.23 0.30 93 1008.6
20260506104522 44 336 5.0 10.0 0.00 1.23 0.30 94 1009.1
20260506103012 45 17 4.0 9.0 0.00 1.23 0.30 95 1008.3
20260506101509 45 21 7.0 13.0 0.00 1.23 0.30 95 1008.5
20260506100016 45 11 6.0 12.0 0.00 1.23 0.30 96 1008.1
20260506094506 45 28 3.0 8.0 0.01 1.23 0.30 95 1007.8
20260506093004 45 36 4.0 8.0 0.02 1.23 0.30 95 1007.2
20260506091503 45 51 3.0 10.0 0.03 1.23 0.30 96 1007.1
20260506090002 45 18 6.0 11.0 0.06 1.23 0.30 96 1007.3
20260506084602 45 360 4.0 10.0 0.05 1.22 0.28 96 1007.7
20260506083101 45 360 4.0 11.0 0.04 1.21 0.28 96 1007.9
20260506081608 45 360 7.0 15.0 0.04 1.20 0.27 95 1007.7
20260506073053 45 11 7.0 13.0 0.07 1.17 0.24 96 1007.1
20260506071550 45 26 5.0 14.0 0.07 1.15 0.23 96 1007.3
20260506061548 45 22 6.0 12.0 0.07 1.08 0.15 96 1007.1
20260506044545 47 355 8.0 13.0 0.03 0.96 0.03 96 1007.7
20260506043030 47 12 3.0 8.0 0.01 0.93 0.00 96 1007.4
20260506041526 47 34 3.0 7.0 0.03 0.93 0.00 96 1007.3
20260506040023 47 37 4.0 6.0 0.06 0.93 0.00 96 1007.2
20260506034523 47 42 1.0 6.0 0.10 0.93 0.93 96 1007.3
20260506033027 47 38 3.0 11.0 0.12 0.92 0.92 95 1007.5
20260506031538 47 28 6.0 11.0 0.12 0.90 0.90 95 1007.8
20260506030020 47 13 5.0 11.0 0.11 0.87 0.87 95 1008.0
20260506024526 48 5 9.0 14.0 0.10 0.83 0.83 95 1008.2
20260506023014 49 37 6.0 11.0 0.10 0.80 0.80 96 1008.1
20260506021514 49 26 5.0 12.0 0.11 0.78 0.78 95 1008.0
20260506020015 49 355 5.0 13.0 0.17 0.76 0.76 95 1007.9
20260506014506 50 346 5.0 14.0 0.23 0.73 0.73 95 1007.9
20260506013005 50 10 6.0 11.0 0.28 0.70 0.70 95 1007.4
20260506011504 50 360 4.0 11.0 0.27 0.66 0.66 95 1007.1
20260506010119 51 5 4.0 12.0 0.22 0.59 0.59 94 1006.9
20260506004553 54 355 3.0 10.0 0.17 0.50 0.50 93 1006.9
20260506003051 58 313 2.0 4.0 0.13 0.42 0.42 95 1006.6
20260506001650 58 246 2.0 8.0 0.11 0.39 0.39 95 1006.3
20260506000053 58 307 2.0 8.0 0.11 0.37 0.37 95 1006.2